TimeEST,TemperatureF,Dew PointF,Humidity,Sea Level PressureIn,VisibilityMPH,Wind Direction,Wind SpeedMPH,Gust SpeedMPH,PrecipitationIn,Events,Conditions,WindDirDegrees,DateUTC
12:15 AM,41.4,38.3,89,30.22,10.0,NE,3.5,-,N/A,,Overcast,50,2012-12-26 05:15:00
12:35 AM,41.4,38.3,89,30.22,10.0,Calm,Calm,-,N/A,,Overcast,0,2012-12-26 05:35:00
12:55 AM,41.0,38.3,90,30.21,10.0,NE,4.6,-,N/A,,Overcast,40,2012-12-26 05:55:00
1:15 AM,41.0,38.3,90,30.21,10.0,NE,5.8,-,N/A,,Overcast,40,2012-12-26 06:15:00
1:35 AM,41.0,38.3,90,30.17,10.0,NNE,10.4,-,N/A,,Overcast,30,2012-12-26 06:35:00
1:55 AM,40.1,36.1,86,30.18,10.0,East,6.9,-,N/A,,Mostly Cloudy,80,2012-12-26 06:55:00
2:15 AM,40.3,35.2,82,30.20,10.0,ENE,5.8,-,N/A,,Mostly Cloudy,60,2012-12-26 07:15:00
2:35 AM,40.1,35.4,83,30.19,10.0,NE,4.6,-,N/A,,Overcast,50,2012-12-26 07:35:00
2:55 AM,40.1,35.6,84,30.20,10.0,NE,5.8,-,N/A,,Overcast,40,2012-12-26 07:55:00
3:15 AM,39.4,35.1,84,30.19,10.0,NE,9.2,-,N/A,,Overcast,40,2012-12-26 08:15:00
3:35 AM,38.7,34.2,84,30.17,10.0,ENE,8.1,-,N/A,,Mostly Cloudy,70,2012-12-26 08:35:00
3:55 AM,38.3,33.1,81,30.16,10.0,NE,6.9,-,N/A,,Scattered Clouds,50,2012-12-26 08:55:00
4:15 AM,37.9,32.7,81,30.15,10.0,ENE,6.9,-,N/A,,Mostly Cloudy,60,2012-12-26 09:15:00
4:35 AM,37.6,32.2,81,30.15,10.0,NE,6.9,-,N/A,,Overcast,50,2012-12-26 09:35:00
4:55 AM,37.4,32.2,81,30.15,10.0,NE,5.8,-,N/A,,Overcast,50,2012-12-26 09:55:00
5:15 AM,37.4,32.7,83,30.15,10.0,NE,6.9,-,N/A,,Overcast,50,2012-12-26 10:15:00
5:55 AM,35.8,33.8,92,30.16,2.0,ENE,6.9,-,N/A,Snow,Light Snow,60,2012-12-26 10:55:00
6:15 AM,34.3,34.3,100,30.15,1.5,NE,3.5,-,N/A,Snow,Light Snow,50,2012-12-26 11:15:00
6:55 AM,34.0,34.0,100,30.07,4.0,NE,15.0,-,0.05,Rain,Rain,40,2012-12-26 11:55:00
7:15 AM,34.0,34.0,100,30.09,4.0,NE,5.8,-,0.02,Rain,Rain,40,2012-12-26 12:15:00
7:35 AM,33.8,33.8,100,30.09,5.0,NE,6.9,-,0.04,Rain,Light Rain,50,2012-12-26 12:35:00
7:55 AM,33.8,33.8,100,30.08,4.0,NE,6.9,-,0.04,Snow,Light Snow,40,2012-12-26 12:55:00
8:15 AM,33.8,33.8,100,30.07,1.5,NE,6.9,-,0.01,Snow,Light Snow,40,2012-12-26 13:15:00
8:35 AM,33.4,33.4,100,30.05,1.0,NNE,6.9,-,0.03,Snow,Light Snow,30,2012-12-26 13:35:00
8:55 AM,33.4,33.4,100,30.04,2.5,NNE,9.2,-,0.04,Snow,Light Snow,30,2012-12-26 13:55:00
9:15 AM,33.4,33.4,100,30.05,3.0,NNE,5.8,-,0.01,Snow,Light Snow,30,2012-12-26 14:15:00
9:35 AM,33.8,33.8,100,30.04,2.5,NE,8.1,-,0.02,Rain,Light Rain,40,2012-12-26 14:35:00
9:55 AM,34.0,34.0,100,30.01,2.5,NNE,9.2,-,0.05,Rain,Rain,30,2012-12-26 14:55:00
10:15 AM,34.0,34.0,100,29.98,3.0,NE,11.5,-,0.01,Rain,Rain,40,2012-12-26 15:15:00
10:35 AM,34.2,34.2,100,29.97,3.0,NE,6.9,-,0.04,Rain,Rain,50,2012-12-26 15:35:00
10:55 AM,34.3,34.3,100,29.95,3.0,NE,10.4,-,0.06,Rain,Rain,40,2012-12-26 15:55:00
11:15 AM,34.3,34.3,100,29.93,4.0,NNE,8.1,-,0.01,Rain,Rain,30,2012-12-26 16:15:00
11:35 AM,34.7,34.7,100,29.91,1.8,NE,5.8,-,0.08,Rain,Heavy Rain,40,2012-12-26 16:35:00
11:55 AM,34.7,34.7,100,29.88,2.0,NNE,6.9,-,0.13,Rain,Rain,20,2012-12-26 16:55:00
12:15 PM,34.7,34.7,100,29.88,2.5,NNW,3.5,-,0.04,Rain,Heavy Rain,340,2012-12-26 17:15:00
12:35 PM,34.7,34.7,100,29.86,1.2,North,3.5,-,0.14,Rain,Heavy Rain,10,2012-12-26 17:35:00
12:55 PM,34.7,34.7,100,29.79,2.5,NNE,9.2,-,0.19,Rain,Rain,30,2012-12-26 17:55:00
1:15 PM,34.7,34.7,100,29.73,5.0,NE,13.8,17.3,0.01,Rain,Light Rain,40,2012-12-26 18:15:00
1:35 PM,34.9,34.9,100,29.71,7.0,NE,12.7,17.3,0.01,Rain,Rain,40,2012-12-26 18:35:00
1:55 PM,35.1,35.1,100,29.68,5.0,NE,9.2,19.6,0.02,Rain,Rain,40,2012-12-26 18:55:00
2:15 PM,35.4,35.4,100,29.65,4.0,NE,12.7,23.0,0.02,Rain,Rain,40,2012-12-26 19:15:00
2:35 PM,35.6,35.6,100,29.64,3.0,NE,6.9,17.3,0.04,Rain,Rain,50,2012-12-26 19:35:00
2:55 PM,36.0,36.0,100,29.65,2.5,NNE,9.2,-,0.08,Rain-Thunderstorm,Thunderstorms and Rain,30,2012-12-26 19:55:00
3:15 PM,36.0,36.0,100,29.61,4.0,North,11.5,-,0.01,Rain,Light Rain,360,2012-12-26 20:15:00
3:55 PM,36.5,36.5,100,29.58,10.0,North,9.2,-,0.01,,Overcast,360,2012-12-26 20:55:00
4:15 PM,36.7,36.7,100,29.59,10.0,NW,13.8,18.4,N/A,,Light Drizzle,320,2012-12-26 21:15:00
4:35 PM,36.7,36.7,100,29.54,3.0,North,10.4,-,0.03,Rain,Light Rain,10,2012-12-26 21:35:00
4:55 PM,37.0,37.0,100,29.51,5.0,North,11.5,18.4,0.03,,Drizzle,360,2012-12-26 21:55:00
5:15 PM,37.6,37.6,100,29.49,10.0,North,11.5,-,N/A,,Overcast,360,2012-12-26 22:15:00
5:35 PM,37.8,37.8,100,29.49,10.0,North,15.0,-,N/A,,Drizzle,10,2012-12-26 22:35:00
5:55 PM,37.9,37.9,100,29.47,7.0,North,12.7,18.4,N/A,,Light Drizzle,350,2012-12-26 22:55:00
6:15 PM,37.8,37.8,100,29.47,5.0,NNW,9.2,16.1,N/A,Rain,Light Rain,340,2012-12-26 23:15:00
6:35 PM,37.4,37.4,100,29.47,3.0,NNW,9.2,-,N/A,,Drizzle,340,2012-12-26 23:35:00
6:55 PM,37.2,37.2,100,29.47,2.5,NNW,9.2,-,0.01,Rain,Rain,330,2012-12-26 23:55:00
7:15 PM,37.4,37.4,100,29.46,5.0,North,11.5,-,N/A,,Drizzle,350,2012-12-27 00:15:00
7:35 PM,37.6,37.6,100,29.45,4.0,NNW,8.1,-,N/A,,Drizzle,340,2012-12-27 00:35:00
7:55 PM,37.4,37.4,100,29.45,4.0,NW,5.8,-,N/A,,Light Drizzle,310,2012-12-27 00:55:00
8:15 PM,36.9,36.9,100,29.46,5.0,NW,8.1,-,N/A,,Overcast,320,2012-12-27 01:15:00
8:35 PM,37.2,37.2,100,29.45,7.0,NW,5.8,10.4,N/A,,Overcast,320,2012-12-27 01:35:00
8:55 PM,37.2,37.2,100,29.45,7.0,NW,9.2,-,0.01,,Overcast,320,2012-12-27 01:55:00
9:15 PM,36.9,36.9,100,29.44,7.0,WNW,6.9,-,N/A,,Overcast,290,2012-12-27 02:15:00
9:35 PM,36.5,36.5,100,29.45,7.0,WNW,9.2,-,N/A,,Overcast,300,2012-12-27 02:35:00
9:55 PM,36.5,36.5,100,29.45,7.0,NW,9.2,-,N/A,,Overcast,310,2012-12-27 02:55:00
10:15 PM,36.5,36.5,100,29.46,7.0,WNW,10.4,-,N/A,,Overcast,290,2012-12-27 03:15:00
10:35 PM,36.7,36.7,100,29.46,7.0,WNW,9.2,-,N/A,,Drizzle,290,2012-12-27 03:35:00
10:55 PM,36.9,36.9,100,29.46,7.0,WNW,9.2,-,N/A,,Overcast,290,2012-12-27 03:55:00
11:15 PM,36.5,36.5,100,29.46,7.0,West,9.2,-,N/A,,Drizzle,280,2012-12-27 04:15:00
11:35 PM,36.7,36.7,100,29.47,10.0,WNW,10.4,16.1,N/A,,Light Drizzle,290,2012-12-27 04:35:00